User: anonymous   Login
Location: Unspecified
(0.0000°N, 0.0000°E)
Time: 22:17:50
(UTC+00:00)
Language:

ONEWEB-0580 - Orbit

View from above orbital plane
View from above orbital plane
View from above satellite
View from above satellite

Ground track
Ground track

The orbit is defined by the following mean orbital elements,

1 54648U          26145.53164125 +.00000000 +00000-0 +28494-3 0 00005
2 54648  87.9254 248.4894 0002415  99.3499 260.7908 13.21826164    04
Epoch (UTC): 25 May 2026 12:45:33
Eccentricity: 0.0002415
inclination: 87.9254°
perigee height: 1176 km
apogee height: 1180 km
right ascension of ascending node: 248.4894°
argument of perigee: 99.3499°
revolutions per day: 13.21826164
mean anomaly at epoch: 260.7908°

The dashed part of the orbit path shows where the satellite is in the earth's shadow,  

DLR